| time (UTC) | temp C | wind direction | speed KPH | gust KPH | rain 1hr cm | rain 24hr cm | rain mn cm | humidity % | barometer mb |
| 20260506212705 | 20 | 221 | 8.0 | 12.9 | 0.00 | 0.00 | 0.00 | 65 | 1019.7 |
| 20260506212200 | 20 | 350 | 4.8 | 14.5 | 0.00 | 0.00 | 0.00 | 66 | 1019.3 |
| 20260506211656 | 20 | 282 | 8.0 | 12.9 | 0.00 | 0.00 | 0.00 | 66 | 1019.7 |
| 20260506211152 | 20 | 243 | 8.0 | 14.5 | 0.00 | 0.00 | 0.00 | 66 | 1020.0 |
| 20260506210649 | 20 | 248 | 6.4 | 11.3 | 0.00 | 0.00 | 0.00 | 65 | 1020.0 |
| 20260506210146 | 20 | 206 | 4.8 | 11.3 | 0.00 | 0.00 | 0.00 | 65 | 1020.0 |
| 20260506205644 | 20 | 276 | 6.4 | 11.3 | 0.00 | 0.00 | 0.00 | 64 | 1019.7 |
| 20260506205138 | 20 | 270 | 8.0 | 12.9 | 0.00 | 0.00 | 0.00 | 65 | 1019.7 |
| 20260506204636 | 20 | 167 | 4.8 | 11.3 | 0.00 | 0.00 | 0.00 | 66 | 1020.0 |
| 20260506204133 | 20 | 219 | 6.4 | 11.3 | 0.00 | 0.00 | 0.00 | 66 | 1020.0 |
| 20260506203631 | 20 | 297 | 6.4 | 11.3 | 0.00 | 0.00 | 0.00 | 66 | 1020.0 |
| 20260506203127 | 20 | 225 | 4.8 | 11.3 | 0.00 | 0.00 | 0.00 | 66 | 1020.0 |
| 20260506202626 | 20 | 235 | 6.4 | 11.3 | 0.00 | 0.00 | 0.00 | 65 | 1020.0 |
| 20260506202121 | 20 | 311 | 8.0 | 11.3 | 0.00 | 0.00 | 0.00 | 65 | 1020.0 |
| 20260506201619 | 20 | 269 | 6.4 | 9.7 | 0.00 | 0.00 | 0.00 | 67 | 1020.0 |
| 20260506201115 | 20 | 303 | 9.7 | 12.9 | 0.00 | 0.00 | 0.00 | 66 | 1020.4 |
| 20260506200612 | 20 | 202 | 3.2 | 12.9 | 0.00 | 0.00 | 0.00 | 66 | 1020.4 |
| 20260506200109 | 20 | 213 | 6.4 | 9.7 | 0.00 | 0.00 | 0.00 | 65 | 1020.4 |
| 20260506195605 | 20 | 205 | 4.8 | 11.3 | 0.00 | 0.00 | 0.00 | 66 | 1020.7 |
| 20260506195102 | 20 | 235 | 3.2 | 11.3 | 0.00 | 0.00 | 0.00 | 66 | 1020.4 |
| 20260506194559 | 21 | 262 | 6.4 | 9.7 | 0.00 | 0.00 | 0.00 | 61 | 1020.4 |
| 20260506194055 | 21 | 291 | 4.8 | 9.7 | 0.00 | 0.00 | 0.00 | 62 | 1020.4 |
| 20260506193553 | 21 | 248 | 6.4 | 12.9 | 0.00 | 0.00 | 0.00 | 63 | 1020.7 |
| 20260506193050 | 20 | 303 | 4.8 | 9.7 | 0.00 | 0.00 | 0.00 | 64 | 1020.7 |
| 20260506192547 | 20 | 340 | 3.2 | 11.3 | 0.00 | 0.00 | 0.00 | 66 | 1020.7 |
| 20260506192043 | 20 | 245 | 3.2 | 9.7 | 0.00 | 0.00 | 0.00 | 65 | 1020.7 |
| 20260506191540 | 20 | 219 | 6.4 | 12.9 | 0.00 | 0.00 | 0.00 | 64 | 1020.7 |
| 20260506191035 | 20 | 243 | 3.2 | 11.3 | 0.00 | 0.00 | 0.00 | 65 | 1020.7 |
| 20260506190533 | 20 | 294 | 3.2 | 9.7 | 0.00 | 0.00 | 0.00 | 66 | 1021.0 |
| 20260506190030 | 20 | 293 | 8.0 | 9.7 | 0.00 | 0.00 | 0.00 | 63 | 1020.7 |
| 20260506185527 | 20 | 293 | 3.2 | 6.4 | 0.00 | 0.00 | 0.00 | 63 | 1021.0 |
| 20260506185024 | 20 | 217 | 3.2 | 11.3 | 0.00 | 0.00 | 0.00 | 65 | 1021.0 |
| 20260506184521 | 20 | 10 | 6.4 | 9.7 | 0.00 | 0.00 | 0.00 | 63 | 1020.7 |
| 20260506184018 | 20 | 342 | 0.0 | 11.3 | 0.00 | 0.00 | 0.00 | 64 | 1020.7 |
| 20260506183514 | 20 | 328 | 3.2 | 6.4 | 0.00 | 0.00 | 0.00 | 64 | 1020.7 |
| 20260506183011 | 20 | 234 | 6.4 | 12.9 | 0.00 | 0.00 | 0.00 | 63 | 1021.0 |
| 20260506182508 | 20 | 155 | 3.2 | 9.7 | 0.00 | 0.00 | 0.00 | 63 | 1021.0 |
| 20260506182005 | 20 | 246 | 3.2 | 6.4 | 0.00 | 0.00 | 0.00 | 64 | 1020.7 |
| 20260506181503 | 20 | 224 | 4.8 | 6.4 | 0.00 | 0.00 | 0.00 | 64 | 1021.0 |
| 20260506181000 | 21 | 264 | 6.4 | 9.7 | 0.00 | 0.00 | 0.00 | 61 | 1021.0 |
| 20260506180456 | 21 | 162 | 3.2 | 6.4 | 0.00 | 0.00 | 0.00 | 63 | 1021.0 |
| 20260506175953 | 20 | 272 | 4.8 | 6.4 | 0.00 | 0.00 | 0.00 | 63 | 1021.0 |
| 20260506175450 | 20 | 308 | 3.2 | 6.4 | 0.00 | 0.00 | 0.00 | 63 | 1021.0 |
| 20260506174946 | 20 | 320 | 3.2 | 6.4 | 0.00 | 0.00 | 0.00 | 64 | 1021.0 |
| 20260506174444 | 20 | 50 | 0.0 | 6.4 | 0.00 | 0.00 | 0.00 | 65 | 1021.0 |
| 20260506173940 | 20 | 268 | 4.8 | 11.3 | 0.00 | 0.00 | 0.00 | 65 | 1021.0 |
| 20260506173438 | 20 | 164 | 4.8 | 6.4 | 0.00 | 0.00 | 0.00 | 65 | 1021.0 |
| 20260506172935 | 21 | 359 | 4.8 | 6.4 | 0.00 | 0.00 | 0.00 | 61 | 1021.0 |
| 20260506172432 | 21 | 331 | 0.0 | 3.2 | 0.00 | 0.00 | 0.00 | 61 | 1021.0 |
| 20260506171928 | 21 | 247 | 3.2 | 4.8 | 0.00 | 0.00 | 0.00 | 59 | 1020.7 |
| 20260506171426 | 20 | 354 | 1.6 | 3.2 | 0.00 | 0.00 | 0.00 | 63 | 1021.0 |
| 20260506170924 | 19 | 335 | 1.6 | 4.8 | 0.00 | 0.00 | 0.00 | 64 | 1021.0 |
| 20260506170420 | 20 | 337 | 0.0 | 3.2 | 0.00 | 0.00 | 0.00 | 65 | 1021.0 |
| 20260506165919 | 20 | 1 | 0.0 | 3.2 | 0.00 | 0.00 | 0.00 | 64 | 1021.0 |
| 20260506165417 | 20 | 312 | 0.0 | 3.2 | 0.00 | 0.00 | 0.00 | 64 | 1021.0 |
| 20260506164912 | 20 | 267 | 6.4 | 6.4 | 0.00 | 0.00 | 0.00 | 64 | 1020.7 |
| 20260506164409 | 20 | 271 | 1.6 | 4.8 | 0.00 | 0.00 | 0.00 | 65 | 1020.7 |
| 20260506163908 | 20 | 353 | 1.6 | 3.2 | 0.00 | 0.00 | 0.00 | 63 | 1020.7 |
| 20260506163402 | 20 | 140 | 3.2 | 4.8 | 0.00 | 0.00 | 0.00 | 64 | 1020.7 |
| 20260506162857 | 20 | 0 | 3.2 | 3.2 | 0.00 | 0.00 | 0.00 | 63 | 1020.7 |
| 20260506162355 | 20 | 40 | 0.0 | 3.2 | 0.00 | 0.00 | 0.00 | 64 | 1021.0 |
| 20260506161852 | 21 | 347 | 0.0 | 1.6 | 0.00 | 0.00 | 0.00 | 63 | 1021.0 |
| 20260506161349 | 20 | 348 | 1.6 | 3.2 | 0.00 | 0.00 | 0.00 | 64 | 1021.0 |
| 20260506160847 | 19 | 262 | 3.2 | 9.7 | 0.00 | 0.00 | 0.00 | 66 | 1020.7 |
| 20260506160344 | 19 | 342 | 1.6 | 4.8 | 0.00 | 0.00 | 0.00 | 67 | 1021.0 |
| 20260506155842 | 18 | 238 | 1.6 | 3.2 | 0.00 | 0.00 | 0.00 | 68 | 1021.0 |
| 20260506155338 | 18 | 38 | 1.6 | 1.6 | 0.00 | 0.00 | 0.00 | 71 | 1021.0 |
| 20260506153456 | 17 | 33 | 1.6 | 3.2 | 0.00 | 0.00 | 0.00 | 72 | 1021.0 |
| 20260506152954 | 17 | 334 | 0.0 | 3.2 | 0.00 | 0.00 | 0.00 | 72 | 1021.0 |
| 20260506152450 | 18 | 13 | 1.6 | 3.2 | 0.00 | 0.00 | 0.00 | 70 | 1021.0 |
| 20260506151949 | 17 | 67 | 3.2 | 6.4 | 0.00 | 0.00 | 0.00 | 73 | 1020.7 |
| 20260506151446 | 17 | 25 | 3.2 | 4.8 | 0.00 | 0.00 | 0.00 | 71 | 1021.0 |
| 20260506150943 | 17 | 30 | 1.6 | 3.2 | 0.00 | 0.00 | 0.00 | 73 | 1021.0 |
| 20260506150439 | 17 | 57 | 1.6 | 3.2 | 0.00 | 0.00 | 0.00 | 74 | 1020.7 |
| 20260506145936 | 17 | 351 | 1.6 | 4.8 | 0.00 | 0.00 | 0.00 | 72 | 1021.0 |
| 20260506145432 | 17 | 76 | 1.6 | 3.2 | 0.00 | 0.00 | 0.00 | 72 | 1021.0 |
| 20260506144930 | 16 | 48 | 3.2 | 6.4 | 0.00 | 0.00 | 0.00 | 74 | 1021.0 |
| 20260506144427 | 17 | 26 | 3.2 | 3.2 | 0.00 | 0.00 | 0.00 | 71 | 1021.0 |
| 20260506143925 | 16 | 1 | 1.6 | 4.8 | 0.00 | 0.00 | 0.00 | 73 | 1021.0 |
| 20260506143422 | 16 | 10 | 0.0 | 3.2 | 0.00 | 0.00 | 0.00 | 74 | 1021.0 |
| 20260506142920 | 16 | 8 | 1.6 | 4.8 | 0.00 | 0.00 | 0.00 | 73 | 1021.0 |
| 20260506142418 | 16 | 350 | 0.0 | 3.2 | 0.00 | 0.00 | 0.00 | 75 | 1020.7 |
| 20260506141916 | 16 | 0 | 0.0 | 6.4 | 0.00 | 0.00 | 0.00 | 75 | 1020.7 |
| 20260506141413 | 15 | 344 | 0.0 | 1.6 | 0.00 | 0.00 | 0.00 | 75 | 1020.7 |
| 20260506140911 | 15 | 5 | 1.6 | 4.8 | 0.00 | 0.00 | 0.00 | 75 | 1020.7 |
| 20260506140408 | 15 | 348 | 0.0 | 1.6 | 0.00 | 0.00 | 0.00 | 76 | 1020.7 |
| 20260506135905 | 15 | 8 | 1.6 | 3.2 | 0.00 | 0.00 | 0.00 | 76 | 1020.7 |
| 20260506135402 | 15 | 348 | 0.0 | 0.0 | 0.00 | 0.00 | 0.00 | 77 | 1020.7 |
| 20260506134858 | 15 | 356 | 1.6 | 3.2 | 0.00 | 0.00 | 0.00 | 77 | 1020.4 |
| 20260506134354 | 14 | 348 | 0.0 | 0.0 | 0.00 | 0.00 | 0.00 | 80 | 1020.7 |
| 20260506133851 | 13 | 343 | 0.0 | 0.0 | 0.00 | 0.00 | 0.00 | 83 | 1020.7 |
| 20260506133348 | 13 | 342 | 0.0 | 0.0 | 0.00 | 0.00 | 0.00 | 84 | 1020.4 |
| 20260506132844 | 12 | 340 | 0.0 | 0.0 | 0.00 | 0.00 | 0.00 | 86 | 1020.4 |
| 20260506132342 | 12 | 342 | 0.0 | 0.0 | 0.00 | 0.00 | 0.00 | 86 | 1020.4 |
| 20260506131840 | 12 | 340 | 0.0 | 0.0 | 0.00 | 0.00 | 0.00 | 87 | 1020.4 |
| 20260506131336 | 12 | 345 | 0.0 | 0.0 | 0.00 | 0.00 | 0.00 | 87 | 1020.4 |
| 20260506130833 | 12 | 338 | 0.0 | 0.0 | 0.00 | 0.00 | 0.00 | 87 | 1020.4 |
| 20260506130329 | 11 | 339 | 0.0 | 0.0 | 0.00 | 0.00 | 0.00 | 87 | 1020.4 |
| 20260506125827 | 11 | 343 | 0.0 | 0.0 | 0.00 | 0.00 | 0.00 | 87 | 1020.4 |
| 20260506125326 | 11 | 340 | 0.0 | 0.0 | 0.00 | 0.00 | 0.00 | 87 | 1020.4 |
| 20260506124824 | 11 | 343 | 0.0 | 0.0 | 0.00 | 0.00 | 0.00 | 87 | 1020.4 |
| 20260506124320 | 11 | 340 | 0.0 | 0.0 | 0.00 | 0.00 | 0.00 | 87 | 1020.0 |
| 20260506123818 | 11 | 341 | 0.0 | 0.0 | 0.00 | 0.00 | 0.00 | 86 | 1020.0 |
| 20260506123317 | 11 | 342 | 0.0 | 0.0 | 0.00 | 0.00 | 0.00 | 86 | 1020.0 |
| 20260506122813 | 12 | 339 | 0.0 | 0.0 | 0.00 | 0.00 | 0.00 | 87 | 1020.0 |
| 20260506122310 | 12 | 337 | 0.0 | 0.0 | 0.00 | 0.00 | 0.00 | 87 | 1020.0 |
| 20260506121808 | 12 | 338 | 0.0 | 0.0 | 0.00 | 0.00 | 0.00 | 87 | 1020.0 |
| 20260506121305 | 11 | 341 | 0.0 | 0.0 | 0.00 | 0.00 | 0.00 | 87 | 1020.0 |
| 20260506120802 | 11 | 342 | 0.0 | 0.0 | 0.00 | 0.00 | 0.00 | 88 | 1019.7 |
| 20260506120300 | 11 | 341 | 0.0 | 0.0 | 0.00 | 0.00 | 0.00 | 88 | 1020.0 |
| 20260506115757 | 11 | 340 | 0.0 | 0.0 | 0.00 | 0.00 | 0.00 | 88 | 1019.7 |
| 20260506115255 | 11 | 338 | 0.0 | 0.0 | 0.00 | 0.00 | 0.00 | 88 | 1019.7 |
| 20260506114753 | 11 | 338 | 0.0 | 0.0 | 0.00 | 0.00 | 0.00 | 88 | 1020.0 |
| 20260506114250 | 11 | 339 | 0.0 | 0.0 | 0.00 | 0.00 | 0.00 | 88 | 1019.7 |
| 20260506113749 | 11 | 338 | 0.0 | 0.0 | 0.00 | 0.00 | 0.00 | 88 | 1019.7 |
| 20260506113246 | 11 | 337 | 0.0 | 0.0 | 0.00 | 0.00 | 0.00 | 88 | 1019.7 |
| 20260506112742 | 11 | 338 | 0.0 | 0.0 | 0.00 | 0.00 | 0.00 | 88 | 1019.7 |
| 20260506112240 | 11 | 339 | 0.0 | 0.0 | 0.00 | 0.00 | 0.00 | 88 | 1019.3 |
| 20260506111737 | 11 | 338 | 0.0 | 0.0 | 0.00 | 0.00 | 0.00 | 88 | 1019.7 |
| 20260506111235 | 11 | 344 | 0.0 | 0.0 | 0.00 | 0.00 | 0.00 | 88 | 1019.7 |
| 20260506110732 | 11 | 342 | 0.0 | 1.6 | 0.00 | 0.00 | 0.00 | 88 | 1019.7 |
| 20260506110230 | 11 | 345 | 0.0 | 0.0 | 0.00 | 0.00 | 0.00 | 88 | 1019.3 |
| 20260506105726 | 11 | 338 | 0.0 | 0.0 | 0.00 | 0.00 | 0.00 | 88 | 1019.7 |
| 20260506105223 | 11 | 338 | 0.0 | 0.0 | 0.00 | 0.00 | 0.00 | 88 | 1019.7 |
| 20260506104721 | 12 | 333 | 0.0 | 0.0 | 0.00 | 0.00 | 0.00 | 88 | 1019.7 |
| 20260506104218 | 12 | 339 | 0.0 | 0.0 | 0.00 | 0.00 | 0.00 | 88 | 1019.7 |
| 20260506103715 | 12 | 337 | 0.0 | 0.0 | 0.00 | 0.00 | 0.00 | 88 | 1019.7 |
| 20260506103212 | 12 | 337 | 0.0 | 0.0 | 0.00 | 0.00 | 0.00 | 88 | 1019.7 |
| 20260506102710 | 12 | 353 | 0.0 | 0.0 | 0.00 | 0.00 | 0.00 | 88 | 1019.3 |
| 20260506102208 | 12 | 341 | 0.0 | 0.0 | 0.00 | 0.00 | 0.00 | 88 | 1019.7 |
| 20260506101704 | 12 | 340 | 0.0 | 1.6 | 0.00 | 0.00 | 0.00 | 88 | 1019.7 |
| 20260506101201 | 12 | 335 | 0.0 | 0.0 | 0.00 | 0.00 | 0.00 | 88 | 1019.7 |
| 20260506100659 | 12 | 338 | 0.0 | 0.0 | 0.00 | 0.00 | 0.00 | 88 | 1020.0 |
| 20260506100157 | 12 | 338 | 0.0 | 0.0 | 0.00 | 0.00 | 0.00 | 88 | 1020.0 |
| 20260506095655 | 12 | 337 | 0.0 | 0.0 | 0.00 | 0.00 | 0.00 | 88 | 1019.7 |
| 20260506095151 | 12 | 327 | 0.0 | 0.0 | 0.00 | 0.00 | 0.00 | 87 | 1019.7 |
| 20260506094649 | 12 | 337 | 0.0 | 0.0 | 0.00 | 0.00 | 0.00 | 87 | 1019.7 |
| 20260506094147 | 12 | 336 | 0.0 | 0.0 | 0.00 | 0.00 | 0.00 | 87 | 1019.7 |
| 20260506093645 | 12 | 340 | 0.0 | 0.0 | 0.00 | 0.00 | 0.00 | 87 | 1019.7 |
| 20260506093142 | 12 | 333 | 0.0 | 0.0 | 0.00 | 0.00 | 0.00 | 87 | 1019.7 |
| 20260506092640 | 12 | 341 | 0.0 | 0.0 | 0.00 | 0.00 | 0.00 | 87 | 1019.7 |
| 20260506092137 | 12 | 338 | 0.0 | 0.0 | 0.00 | 0.00 | 0.00 | 87 | 1019.7 |
| 20260506091635 | 12 | 335 | 0.0 | 0.0 | 0.00 | 0.00 | 0.00 | 86 | 1019.7 |
| 20260506091132 | 12 | 339 | 0.0 | 0.0 | 0.00 | 0.00 | 0.00 | 86 | 1019.7 |
| 20260506090630 | 12 | 317 | 0.0 | 0.0 | 0.00 | 0.00 | 0.00 | 86 | 1020.0 |
| 20260506090126 | 12 | 343 | 0.0 | 1.6 | 0.00 | 0.00 | 0.00 | 86 | 1020.0 |
| 20260506085623 | 12 | 337 | 0.0 | 0.0 | 0.00 | 0.00 | 0.00 | 86 | 1020.0 |
| 20260506085119 | 12 | 346 | 0.0 | 0.0 | 0.00 | 0.00 | 0.00 | 86 | 1020.4 |
| 20260506084616 | 12 | 339 | 0.0 | 0.0 | 0.00 | 0.00 | 0.00 | 86 | 1020.0 |
| 20260506084112 | 12 | 338 | 0.0 | 0.0 | 0.00 | 0.00 | 0.00 | 86 | 1020.4 |
| 20260506083610 | 12 | 333 | 0.0 | 0.0 | 0.00 | 0.00 | 0.00 | 86 | 1020.0 |
| 20260506083107 | 12 | 337 | 0.0 | 0.0 | 0.00 | 0.00 | 0.00 | 86 | 1020.0 |
| 20260506082603 | 12 | 339 | 0.0 | 0.0 | 0.00 | 0.00 | 0.00 | 86 | 1020.0 |
| 20260506082059 | 12 | 339 | 0.0 | 0.0 | 0.00 | 0.00 | 0.00 | 86 | 1020.4 |
| 20260506081558 | 12 | 343 | 0.0 | 0.0 | 0.00 | 0.00 | 0.00 | 86 | 1020.4 |
| 20260506081055 | 12 | 336 | 0.0 | 0.0 | 0.00 | 0.00 | 0.00 | 86 | 1020.0 |
| 20260506080552 | 12 | 332 | 0.0 | 0.0 | 0.00 | 0.00 | 0.00 | 86 | 1020.4 |
| 20260506073033 | 12 | 336 | 0.0 | 0.0 | 0.00 | 0.00 | 0.00 | 85 | 1020.0 |
| 20260506072530 | 12 | 336 | 0.0 | 0.0 | 0.00 | 0.00 | 0.00 | 85 | 1020.4 |
| 20260506072028 | 12 | 332 | 0.0 | 0.0 | 0.00 | 0.00 | 0.00 | 85 | 1020.0 |
| 20260506071525 | 13 | 334 | 0.0 | 0.0 | 0.00 | 0.00 | 0.00 | 85 | 1020.4 |
| 20260506071022 | 13 | 336 | 0.0 | 0.0 | 0.00 | 0.00 | 0.00 | 85 | 1020.0 |
| 20260506070520 | 13 | 334 | 0.0 | 0.0 | 0.00 | 0.00 | 0.00 | 85 | 1020.0 |
| 20260506062457 | 13 | 332 | 0.0 | 0.0 | 0.00 | 0.00 | 0.00 | 85 | 1019.7 |
| 20260506061953 | 13 | 340 | 0.0 | 0.0 | 0.00 | 0.00 | 0.00 | 85 | 1019.7 |
| 20260506061449 | 13 | 339 | 0.0 | 0.0 | 0.00 | 0.00 | 0.00 | 85 | 1019.3 |
| 20260506060947 | 13 | 338 | 0.0 | 0.0 | 0.00 | 0.00 | 0.00 | 84 | 1019.3 |
| 20260506060446 | 13 | 339 | 0.0 | 0.0 | 0.00 | 0.00 | 0.00 | 84 | 1019.7 |
| 20260506050914 | 14 | 341 | 0.0 | 0.0 | 0.00 | 0.00 | 0.00 | 83 | 1019.3 |
| 20260506050412 | 14 | 343 | 0.0 | 0.0 | 0.00 | 0.00 | 0.00 | 83 | 1019.3 |
| 20260506044902 | 14 | 336 | 0.0 | 0.0 | 0.00 | 0.00 | 0.00 | 81 | 1018.7 |
| 20260506044400 | 14 | 337 | 0.0 | 0.0 | 0.00 | 0.00 | 0.00 | 81 | 1018.7 |
| 20260506043857 | 14 | 346 | 0.0 | 0.0 | 0.00 | 0.00 | 0.00 | 82 | 1018.7 |
| 20260506043354 | 14 | 335 | 0.0 | 0.0 | 0.00 | 0.00 | 0.00 | 82 | 1018.7 |
| 20260506042852 | 14 | 339 | 0.0 | 0.0 | 0.00 | 0.00 | 0.00 | 82 | 1018.3 |
| 20260506042351 | 14 | 339 | 0.0 | 0.0 | 0.00 | 0.00 | 0.00 | 82 | 1018.7 |
| 20260506041849 | 15 | 342 | 0.0 | 0.0 | 0.00 | 0.00 | 0.00 | 82 | 1018.7 |
| 20260506041346 | 15 | 337 | 0.0 | 0.0 | 0.00 | 0.00 | 0.00 | 81 | 1018.7 |
| 20260506040843 | 15 | 338 | 0.0 | 0.0 | 0.00 | 0.00 | 0.00 | 81 | 1018.7 |
| 20260506040341 | 15 | 346 | 0.0 | 0.0 | 0.00 | 0.00 | 0.00 | 80 | 1018.3 |
| 20260506035836 | 15 | 337 | 0.0 | 0.0 | 0.00 | 0.00 | 0.00 | 80 | 1018.3 |
| 20260506035334 | 15 | 336 | 0.0 | 0.0 | 0.00 | 0.00 | 0.00 | 80 | 1018.3 |
| 20260506034831 | 15 | 337 | 0.0 | 0.0 | 0.00 | 0.00 | 0.00 | 79 | 1018.7 |
| 20260506034328 | 15 | 308 | 0.0 | 0.0 | 0.00 | 0.00 | 0.00 | 79 | 1018.3 |
| 20260506033825 | 15 | 339 | 0.0 | 0.0 | 0.00 | 0.00 | 0.00 | 79 | 1018.0 |
| 20260506033322 | 15 | 342 | 0.0 | 0.0 | 0.00 | 0.00 | 0.00 | 79 | 1018.0 |
| 20260506032819 | 15 | 342 | 0.0 | 0.0 | 0.00 | 0.00 | 0.00 | 78 | 1018.0 |
| 20260506032316 | 15 | 295 | 0.0 | 1.6 | 0.00 | 0.00 | 0.00 | 78 | 1018.0 |
| 20260506031813 | 15 | 340 | 1.6 | 1.6 | 0.00 | 0.00 | 0.00 | 78 | 1017.6 |
| 20260506031310 | 15 | 300 | 0.0 | 1.6 | 0.00 | 0.00 | 0.00 | 78 | 1017.6 |
| 20260506030808 | 15 | 338 | 0.0 | 1.6 | 0.00 | 0.00 | 0.00 | 78 | 1017.3 |
| 20260506030306 | 15 | 226 | 3.2 | 3.2 | 0.00 | 0.00 | 0.00 | 77 | 1017.6 |
| 20260506025802 | 15 | 270 | 1.6 | 1.6 | 0.00 | 0.00 | 0.00 | 78 | 1017.6 |
| 20260506025258 | 15 | 297 | 0.0 | 1.6 | 0.00 | 0.00 | 0.00 | 77 | 1017.6 |
| 20260506024756 | 15 | 339 | 0.0 | 1.6 | 0.00 | 0.00 | 0.00 | 77 | 1017.3 |
| 20260506024252 | 15 | 266 | 3.2 | 3.2 | 0.00 | 0.00 | 0.00 | 77 | 1017.3 |
| 20260506023748 | 15 | 337 | 0.0 | 3.2 | 0.00 | 0.00 | 0.00 | 77 | 1017.3 |
| 20260506023246 | 16 | 303 | 3.2 | 4.8 | 0.00 | 0.00 | 0.00 | 76 | 1017.0 |
| 20260506022742 | 16 | 306 | 1.6 | 3.2 | 0.00 | 0.00 | 0.00 | 76 | 1017.0 |
| 20260506022240 | 16 | 318 | 0.0 | 3.2 | 0.00 | 0.00 | 0.00 | 75 | 1017.0 |
| 20260506021738 | 16 | 339 | 0.0 | 1.6 | 0.00 | 0.00 | 0.00 | 75 | 1017.3 |
| 20260506021235 | 16 | 325 | 3.2 | 3.2 | 0.00 | 0.00 | 0.00 | 74 | 1017.0 |
| 20260506020731 | 16 | 315 | 0.0 | 3.2 | 0.00 | 0.00 | 0.00 | 74 | 1017.0 |
| 20260506020229 | 16 | 327 | 1.6 | 4.8 | 0.00 | 0.00 | 0.00 | 74 | 1017.0 |
| 20260506015727 | 16 | 246 | 3.2 | 6.4 | 0.00 | 0.00 | 0.00 | 73 | 1017.0 |
| 20260506015224 | 16 | 268 | 3.2 | 4.8 | 0.00 | 0.00 | 0.00 | 71 | 1017.0 |
| 20260506014721 | 17 | 326 | 0.0 | 1.6 | 0.00 | 0.00 | 0.00 | 69 | 1017.0 |
| 20260506014217 | 17 | 333 | 0.0 | 1.6 | 0.00 | 0.00 | 0.00 | 70 | 1017.0 |
| 20260506013715 | 17 | 313 | 6.4 | 9.7 | 0.00 | 0.00 | 0.00 | 69 | 1016.6 |
| 20260506013212 | 17 | 317 | 1.6 | 3.2 | 0.00 | 0.00 | 0.00 | 70 | 1017.0 |
| 20260506012708 | 16 | 333 | 0.0 | 1.6 | 0.00 | 0.00 | 0.00 | 70 | 1017.0 |
| 20260506012205 | 16 | 298 | 3.2 | 4.8 | 0.00 | 0.00 | 0.00 | 70 | 1016.6 |
| 20260506011702 | 16 | 309 | 3.2 | 4.8 | 0.00 | 0.00 | 0.00 | 69 | 1017.0 |
| 20260506011158 | 16 | 262 | 3.2 | 3.2 | 0.00 | 0.00 | 0.00 | 70 | 1017.0 |
| 20260506010657 | 16 | 238 | 3.2 | 6.4 | 0.00 | 0.00 | 0.00 | 70 | 1017.3 |
| 20260506010154 | 17 | 181 | 3.2 | 3.2 | 0.00 | 0.00 | 0.00 | 69 | 1017.0 |
| 20260506005651 | 17 | 178 | 3.2 | 3.2 | 0.00 | 0.00 | 0.00 | 69 | 1016.6 |
| 20260506005147 | 17 | 311 | 1.6 | 3.2 | 0.00 | 0.00 | 0.00 | 69 | 1017.0 |
| 20260506004643 | 17 | 335 | 1.6 | 6.4 | 0.00 | 0.00 | 0.00 | 67 | 1017.0 |
| 20260506004141 | 17 | 256 | 3.2 | 3.2 | 0.00 | 0.00 | 0.00 | 66 | 1017.0 |
| 20260506003637 | 17 | 258 | 0.0 | 3.2 | 0.00 | 0.00 | 0.00 | 66 | 1017.0 |
| 20260506003133 | 17 | 335 | 0.0 | 3.2 | 0.00 | 0.00 | 0.00 | 66 | 1016.6 |
| 20260506002630 | 17 | 209 | 6.4 | 9.7 | 0.00 | 0.00 | 0.00 | 65 | 1016.6 |
| 20260506002126 | 17 | 303 | 4.8 | 9.7 | 0.00 | 0.00 | 0.00 | 66 | 1016.6 |
| 20260506001621 | 17 | 248 | 3.2 | 6.4 | 0.00 | 0.00 | 0.00 | 66 | 1016.6 |
| 20260506001119 | 17 | 214 | 3.2 | 6.4 | 0.00 | 0.00 | 0.00 | 65 | 1017.0 |
| 20260506000616 | 17 | 279 | 6.4 | 9.7 | 0.00 | 0.00 | 0.00 | 65 | 1016.6 |
| 20260506000113 | 17 | 216 | 4.8 | 6.4 | 0.00 | 0.00 | 0.00 | 63 | 1016.6 |
| 20260505235612 | 17 | 189 | 3.2 | 11.3 | 0.00 | 0.00 | 0.00 | 63 | 1016.6 |
| 20260505235108 | 17 | 306 | 6.4 | 9.7 | 0.00 | 0.00 | 0.00 | 63 | 1017.0 |
| 20260505234605 | 17 | 209 | 6.4 | 6.4 | 0.00 | 0.00 | 0.00 | 63 | 1016.6 |
| 20260505234102 | 17 | 129 | 3.2 | 9.7 | 0.00 | 0.00 | 0.00 | 65 | 1016.6 |
| 20260505233600 | 17 | 286 | 3.2 | 11.3 | 0.00 | 0.00 | 0.00 | 66 | 1017.0 |
| 20260505233057 | 17 | 228 | 6.4 | 11.3 | 0.00 | 0.00 | 0.00 | 67 | 1017.0 |
| 20260505232555 | 17 | 278 | 3.2 | 9.7 | 0.00 | 0.00 | 0.00 | 67 | 1017.0 |
| 20260505232052 | 16 | 274 | 4.8 | 6.4 | 0.00 | 0.00 | 0.00 | 68 | 1016.6 |
| 20260505231548 | 16 | 267 | 8.0 | 9.7 | 0.00 | 0.00 | 0.00 | 68 | 1017.0 |
| 20260505231047 | 16 | 231 | 3.2 | 9.7 | 0.00 | 0.00 | 0.00 | 69 | 1016.6 |
| 20260505230544 | 16 | 275 | 6.4 | 9.7 | 0.00 | 0.00 | 0.00 | 68 | 1017.0 |
| 20260505230041 | 16 | 298 | 1.6 | 4.8 | 0.00 | 0.00 | 0.00 | 69 | 1017.0 |
| 20260505225537 | 16 | 311 | 6.4 | 9.7 | 0.00 | 0.00 | 0.00 | 68 | 1017.0 |
| 20260505225033 | 17 | 110 | 4.8 | 11.3 | 0.00 | 0.00 | 0.00 | 67 | 1017.0 |
| 20260505224531 | 17 | 255 | 8.0 | 11.3 | 0.00 | 0.00 | 0.00 | 66 | 1017.3 |
| 20260505224028 | 17 | 278 | 3.2 | 4.8 | 0.00 | 0.00 | 0.00 | 66 | 1017.0 |
| 20260505223525 | 18 | 193 | 6.4 | 9.7 | 0.00 | 0.00 | 0.00 | 65 | 1017.0 |
| 20260505223021 | 17 | 300 | 1.6 | 9.7 | 0.00 | 0.00 | 0.00 | 64 | 1017.0 |
| 20260505222518 | 17 | 312 | 3.2 | 12.9 | 0.00 | 0.00 | 0.00 | 65 | 1017.3 |
| 20260505222013 | 18 | 237 | 3.2 | 11.3 | 0.00 | 0.00 | 0.00 | 64 | 1017.3 |
| 20260505221511 | 17 | 192 | 6.4 | 11.3 | 0.00 | 0.00 | 0.00 | 65 | 1017.3 |
| 20260505221008 | 18 | 342 | 4.8 | 6.4 | 0.00 | 0.00 | 0.00 | 63 | 1017.3 |
| 20260505220504 | 17 | 258 | 12.9 | 14.5 | 0.00 | 0.00 | 0.00 | 65 | 1017.3 |
| 20260505220002 | 17 | 242 | 9.7 | 16.1 | 0.00 | 0.00 | 0.00 | 64 | 1017.3 |
| 20260505215500 | 17 | 239 | 9.7 | 17.7 | 0.00 | 0.00 | 0.00 | 64 | 1017.3 |
| 20260505214958 | 18 | 277 | 6.4 | 14.5 | 0.00 | 0.00 | 0.00 | 63 | 1017.6 |
| 20260505214456 | 18 | 216 | 8.0 | 11.3 | 0.00 | 0.00 | 0.00 | 63 | 1017.3 |
| 20260505213952 | 18 | 179 | 4.8 | 12.9 | 0.00 | 0.00 | 0.00 | 64 | 1017.3 |
| 20260505213450 | 17 | 289 | 0.0 | 12.9 | 0.00 | 0.00 | 0.00 | 65 | 1017.3 |
| 20260505212946 | 18 | 253 | 11.3 | 20.9 | 0.00 | 0.00 | 0.00 | 65 | 1017.6 |